STARLINK-32475, 61728

Orbit data source: Space-Track

STARLINK-32475, 61728 is a payload satellite owned by SpaceX/Seattle (US) in LEO that was launched on Wed, 30 Oct 2024 UTC via an FALCON 9 launch vehicle from the Air Force Eastern Test Range (AFETR). Payload-class satellites include a variety of spacecraft equipped with specific instruments for various scientific and technological missions. These include communications satellites like Starlink; space stations such as the ISS; scientific satellites like the Hubble; Earth observation satellites from companies like Planet Labs, Umbra, and HawkEye 360; GPS; miniature CubeSats for education and research; and military/defense satellites.

Loading next visibility...
Identifier
61728, 2024-196X
Orbit
LEO
Country
Flag of USUS
Related business
Manufacturer
SpaceX/Seattle
Mission
Operational Commercial Communications
Bus & Motor
STARLINK V2M, Unknown motor
Mass
730 kg wet, ~700 kg dry
Launch date (UTC)
2024-10-30 (1 year ago)
Launch vehicle
FALCON 9
Launch site
Air Force Eastern Test Range (AFETR)
Object type
Payload
Rocket body
Debris
Shape & HBR
Box + 2 Pan, 17.7 m
Radar Cross Section
33.884 m², Large (>1 m²)

Expand to show TLE details & history
Last TLE update: 1 day ago

TLE from 1 day ago
0 STARLINK-32475
1 61728U 24196X   26034.04655982  .00000729  00000-0  36727-4 0  9997
2 61728  53.1602 262.1733 0001349  95.1396 264.9758 15.30197456 71850
Epoch: 2026-02-03T01:07Z
TLE epoch observation values (Epoch: 2026-02-03T01:07:02.768Z)
Latitude
-0.00008°
Longitude
112.17859°
Altitude
476.203 km
Speed
7.629 km/s
True Right ascension
17h 28m 41s
True Declination
0° 00' 00"
Sunlit
Object was in daylight at epoch
Visualization orbit readout
Latitude
Unknown
Longitude
Unknown
Altitude
Unknown
Speed
Unknown
Apparent Right ascension
Unknown
Apparent Declination
Unknown
Sunlit
N/A
Visualization observer readout
Local Sidereal Time
07:08:56
Azimuth
Unknown
Elevation
Unknown
Doppler factor
Unknown
Orbital elements
Apogee altitude
476.404 km
Perigee altitude
474.555 km
Semi-major axis
6,853.616 km
Eccentricity
0.00013
Inclination
53.1602°
RAAN
262.1733°
Arg. of periapsis
95.1396°
True anomaly
264.9604°
Mean anomaly
264.9758°
Eccentric anomaly
264.9681°
Mean motion
3.82528 °/min
Orbital period
94.11 mins
BSTAR
0.000036727
Loading maneuver chart data...
Computing Atmospheric mass density...
Loading historical data...
Loading historical data...
Loading historical data...
Loading historical data...
Loading historical data...
Loading historical data...
Loading historical data...

Documentation

Showing up to 5 results
|